Time,TemperatureF,DewpointF,PressureIn,WindDirection,WindDirectionDegrees,WindSpeedMPH,WindSpeedGustMPH,Humidity,HourlyPrecipIn,Conditions,Clouds,dailyrainin,SolarRadiationWatts/m^2,SoftwareType,DateUTC
2013-08-07 00:02:00,54.6,42.3,29.83,ENE,78,0.0,4.0,63,0.00,,,0.00,0,Wunderground v.1.15,2013-08-07 06:02:00,
2013-08-07 00:08:00,54.5,41.7,29.83,ENE,78,0.0,4.0,62,0.00,,,0.00,0,Wunderground v.1.15,2013-08-07 06:08:00,
2013-08-07 00:14:00,54.5,40.9,29.83,ENE,78,2.0,3.0,60,0.00,,,0.00,0,Wunderground v.1.15,2013-08-07 06:14:00,
2013-08-07 00:20:00,54.7,40.6,29.83,East,79,3.0,3.0,59,0.00,,,0.00,0,Wunderground v.1.15,2013-08-07 06:20:00,
2013-08-07 00:26:00,54.7,40.6,29.84,ENE,74,2.0,3.0,59,0.00,,,0.00,0,Wunderground v.1.15,2013-08-07 06:26:00,
2013-08-07 00:32:00,54.6,40.6,29.84,ENE,74,2.0,2.0,59,0.00,,,0.00,0,Wunderground v.1.15,2013-08-07 06:32:00,
2013-08-07 00:38:00,54.3,40.7,29.84,ENE,77,2.0,2.0,60,0.00,,,0.00,0,Wunderground v.1.15,2013-08-07 06:38:00,
2013-08-07 00:44:00,54.0,40.4,29.84,ENE,76,1.0,2.0,60,0.00,,,0.00,0,Wunderground v.1.15,2013-08-07 06:44:00,
2013-08-07 00:50:00,53.7,40.6,29.84,ENE,77,2.0,2.0,61,0.00,,,0.00,0,Wunderground v.1.15,2013-08-07 06:50:00,
2013-08-07 00:56:00,53.4,41.1,29.84,ENE,76,2.0,3.0,63,0.00,,,0.00,0,Wunderground v.1.15,2013-08-07 06:56:00,
2013-08-07 01:02:00,53.1,41.6,29.84,ENE,77,1.0,1.0,65,0.00,,,0.00,0,Wunderground v.1.15,2013-08-07 07:02:00,
2013-08-07 01:08:00,52.7,41.3,29.84,East,80,0.0,3.0,65,0.00,,,0.00,0,Wunderground v.1.15,2013-08-07 07:08:00,
2013-08-07 01:14:00,52.0,41.0,29.84,East,101,2.0,5.0,66,0.00,,,0.00,0,Wunderground v.1.15,2013-08-07 07:14:00,
2013-08-07 01:20:00,51.2,41.0,29.84,ESE,105,3.0,5.0,68,0.00,,,0.00,0,Wunderground v.1.15,2013-08-07 07:20:00,
2013-08-07 01:26:00,50.5,41.1,29.84,ENE,73,4.0,6.0,70,0.00,,,0.00,0,Wunderground v.1.15,2013-08-07 07:26:00,
2013-08-07 01:32:00,50.0,40.6,29.84,ENE,71,5.0,5.0,70,0.00,,,0.00,0,Wunderground v.1.15,2013-08-07 07:32:00,
2013-08-07 01:38:00,50.0,40.6,29.84,East,79,4.0,5.0,70,0.00,,,0.00,0,Wunderground v.1.15,2013-08-07 07:38:00,
2013-08-07 01:46:00,50.1,40.3,29.83,ENE,65,2.0,4.0,69,0.00,,,0.00,0,Wunderground v.1.15,2013-08-07 07:46:00,
2013-08-07 01:52:00,50.1,40.7,29.84,East,98,3.0,5.0,70,0.00,,,0.00,0,Wunderground v.1.15,2013-08-07 07:52:00,
2013-08-07 01:58:00,50.0,40.2,29.84,ENE,67,3.0,5.0,69,0.00,,,0.00,0,Wunderground v.1.15,2013-08-07 07:58:00,
2013-08-07 02:04:00,50.0,40.2,29.84,ENE,67,2.0,3.0,69,0.00,,,0.00,0,Wunderground v.1.15,2013-08-07 08:04:00,
2013-08-07 02:10:00,50.0,39.8,29.84,ENE,69,3.0,3.0,68,0.00,,,0.00,0,Wunderground v.1.15,2013-08-07 08:10:00,
2013-08-07 02:16:00,50.1,39.9,29.84,ENE,71,3.0,4.0,68,0.00,,,0.00,0,Wunderground v.1.15,2013-08-07 08:16:00,
2013-08-07 02:22:00,50.1,39.9,29.84,East,79,4.0,4.0,68,0.00,,,0.00,0,Wunderground v.1.15,2013-08-07 08:22:00,
2013-08-07 02:28:00,50.4,40.2,29.84,ENE,59,4.0,6.0,68,0.00,,,0.00,0,Wunderground v.1.15,2013-08-07 08:28:00,
2013-08-07 02:34:00,50.9,40.3,29.84,ENE,60,3.0,4.0,67,0.00,,,0.00,0,Wunderground v.1.15,2013-08-07 08:34:00,
2013-08-07 02:40:00,51.2,40.6,29.83,ESE,111,2.0,2.0,67,0.00,,,0.00,0,Wunderground v.1.15,2013-08-07 08:40:00,
2013-08-07 02:46:00,51.4,40.0,29.84,ENE,72,4.0,4.0,65,0.00,,,0.00,0,Wunderground v.1.15,2013-08-07 08:46:00,
2013-08-07 02:52:00,51.6,40.6,29.84,East,79,4.0,5.0,66,0.00,,,0.00,0,Wunderground v.1.15,2013-08-07 08:52:00,
2013-08-07 02:58:00,51.9,40.1,29.84,ENE,62,5.0,5.0,64,0.00,,,0.00,0,Wunderground v.1.15,2013-08-07 08:58:00,
2013-08-07 03:04:00,52.0,40.2,29.83,NE,46,4.0,5.0,64,0.00,,,0.00,0,Wunderground v.1.15,2013-08-07 09:04:00,
2013-08-07 03:10:00,52.1,40.3,29.83,ESE,110,3.0,4.0,64,0.00,,,0.00,0,Wunderground v.1.15,2013-08-07 09:10:00,
2013-08-07 03:16:00,52.1,40.7,29.84,East,79,4.0,6.0,65,0.00,,,0.00,0,Wunderground v.1.15,2013-08-07 09:16:00,
2013-08-07 03:22:00,51.9,40.1,29.83,East,82,4.0,4.0,64,0.00,,,0.00,0,Wunderground v.1.15,2013-08-07 09:22:00,
2013-08-07 03:28:00,51.6,39.8,29.84,ENE,66,4.0,5.0,64,0.00,,,0.00,0,Wunderground v.1.15,2013-08-07 09:28:00,
2013-08-07 03:34:00,51.4,39.6,29.84,ENE,63,4.0,5.0,64,0.00,,,0.00,0,Wunderground v.1.15,2013-08-07 09:34:00,
2013-08-07 03:40:00,51.2,39.4,29.84,NE,40,5.0,6.0,64,0.00,,,0.00,0,Wunderground v.1.15,2013-08-07 09:40:00,
2013-08-07 03:46:00,51.4,39.6,29.84,NE,39,5.0,9.0,64,0.00,,,0.00,0,Wunderground v.1.15,2013-08-07 09:46:00,
2013-08-07 03:52:00,51.9,39.7,29.84,NE,38,5.0,6.0,63,0.00,,,0.00,0,Wunderground v.1.15,2013-08-07 09:52:00,
2013-08-07 03:58:00,52.5,39.8,29.83,NNE,29,6.0,8.0,62,0.00,,,0.00,0,Wunderground v.1.15,2013-08-07 09:58:00,
2013-08-07 04:04:00,53.2,40.1,29.84,NE,39,7.0,7.0,61,0.00,,,0.00,0,Wunderground v.1.15,2013-08-07 10:04:00,
2013-08-07 04:10:00,53.6,40.0,29.84,NE,50,6.0,7.0,60,0.00,,,0.00,0,Wunderground v.1.15,2013-08-07 10:10:00,
2013-08-07 04:16:00,53.9,39.9,29.84,ENE,69,5.0,7.0,59,0.00,,,0.00,0,Wunderground v.1.15,2013-08-07 10:16:00,
2013-08-07 04:22:00,53.7,39.7,29.84,ENE,67,5.0,5.0,59,0.00,,,0.00,0,Wunderground v.1.15,2013-08-07 10:22:00,
2013-08-07 04:28:00,52.9,39.4,29.84,East,81,5.0,5.0,60,0.00,,,0.00,0,Wunderground v.1.15,2013-08-07 10:28:00,
2013-08-07 04:34:00,52.1,39.5,29.84,ENE,76,4.0,5.0,62,0.00,,,0.00,0,Wunderground v.1.15,2013-08-07 10:34:00,
2013-08-07 04:40:00,51.3,39.1,29.83,ENE,70,6.0,6.0,63,0.00,,,0.00,0,Wunderground v.1.15,2013-08-07 10:40:00,
2013-08-07 04:46:00,50.7,39.0,29.84,ENE,65,6.0,9.0,64,0.00,,,0.00,0,Wunderground v.1.15,2013-08-07 10:46:00,
2013-08-07 04:52:00,50.0,39.1,29.84,ENE,69,5.0,5.0,66,0.00,,,0.00,0,Wunderground v.1.15,2013-08-07 10:52:00,
2013-08-07 04:58:00,49.3,38.8,29.83,ENE,74,5.0,5.0,67,0.00,,,0.00,0,Wunderground v.1.15,2013-08-07 10:58:00,
2013-08-07 05:04:00,48.8,38.7,29.83,East,95,4.0,6.0,68,0.00,,,0.00,0,Wunderground v.1.15,2013-08-07 11:04:00,
2013-08-07 05:10:00,48.1,38.8,29.84,ESE,105,4.0,4.0,70,0.00,,,0.00,0,Wunderground v.1.15,2013-08-07 11:10:00,
2013-08-07 05:16:00,47.7,38.4,29.83,ENE,69,3.0,4.0,70,0.00,,,0.00,0,Wunderground v.1.15,2013-08-07 11:16:00,
2013-08-07 05:22:00,47.2,38.3,29.83,ENE,65,3.0,3.0,71,0.00,,,0.00,0,Wunderground v.1.15,2013-08-07 11:22:00,
2013-08-07 05:28:00,46.9,38.3,29.83,ENE,71,4.0,5.0,72,0.00,,,0.00,0,Wunderground v.1.15,2013-08-07 11:28:00,
2013-08-07 05:34:00,46.9,38.7,29.83,ENE,69,4.0,4.0,73,0.00,,,0.00,0,Wunderground v.1.15,2013-08-07 11:34:00,
2013-08-07 05:40:00,47.0,38.4,29.83,ENE,75,4.0,5.0,72,0.00,,,0.00,0,Wunderground v.1.15,2013-08-07 11:40:00,
2013-08-07 05:46:00,46.9,38.3,29.83,ENE,61,4.0,5.0,72,0.00,,,0.00,0,Wunderground v.1.15,2013-08-07 11:46:00,
2013-08-07 05:54:00,46.7,38.1,29.84,ENE,62,5.0,6.0,72,0.00,,,0.00,0,Wunderground v.1.15,2013-08-07 11:54:00,
2013-08-07 06:00:00,46.7,38.5,29.83,ENE,63,5.0,5.0,73,0.00,,,0.00,0,Wunderground v.1.15,2013-08-07 12:00:00,
2013-08-07 06:08:00,47.2,38.6,29.83,NE,51,5.0,7.0,72,0.00,,,0.00,0,Wunderground v.1.15,2013-08-07 12:08:00,
2013-08-07 06:14:00,47.6,38.7,29.83,NE,42,6.0,9.0,71,0.00,,,0.00,0,Wunderground v.1.15,2013-08-07 12:14:00,
2013-08-07 06:22:00,48.1,38.8,29.83,ENE,65,6.0,9.0,70,0.00,,,0.00,5,Wunderground v.1.15,2013-08-07 12:22:00,
2013-08-07 06:30:00,48.3,38.6,29.84,NE,34,6.0,6.0,69,0.00,,,0.00,9,Wunderground v.1.15,2013-08-07 12:30:00,
2013-08-07 06:36:00,48.4,38.7,29.84,NE,40,5.0,6.0,69,0.00,,,0.00,11,Wunderground v.1.15,2013-08-07 12:36:00,
2013-08-07 06:42:00,48.5,38.8,29.84,NE,52,5.0,9.0,69,0.00,,,0.00,14,Wunderground v.1.15,2013-08-07 12:42:00,
2013-08-07 06:48:00,48.7,38.6,29.84,ENE,65,6.0,10.0,68,0.00,,,0.00,19,Wunderground v.1.15,2013-08-07 12:48:00,
2013-08-07 06:58:00,49.1,39.0,29.84,ENE,63,5.0,7.0,68,0.00,,,0.00,21,Wunderground v.1.15,2013-08-07 12:58:00,
2013-08-07 07:04:00,49.4,39.3,29.84,East,94,5.0,6.0,68,0.00,,,0.00,23,Wunderground v.1.15,2013-08-07 13:04:00,
2013-08-07 07:12:00,49.6,39.5,29.84,ENE,69,4.0,4.0,68,0.00,,,0.00,25,Wunderground v.1.15,2013-08-07 13:12:00,
2013-08-07 07:18:00,49.8,39.7,29.84,ENE,65,3.0,6.0,68,0.00,,,0.00,26,Wunderground v.1.15,2013-08-07 13:18:00,
2013-08-07 07:24:00,49.9,39.8,29.84,ENE,75,4.0,5.0,68,0.00,,,0.00,26,Wunderground v.1.15,2013-08-07 13:24:00,
2013-08-07 07:30:00,50.0,40.2,29.84,ENE,71,4.0,5.0,69,0.00,,,0.00,28,Wunderground v.1.15,2013-08-07 13:30:00,
2013-08-07 07:36:00,50.3,40.5,29.84,ENE,66,4.0,5.0,69,0.00,,,0.00,28,Wunderground v.1.15,2013-08-07 13:36:00,
2013-08-07 07:42:00,50.9,41.1,29.84,ENE,63,4.0,4.0,69,0.00,,,0.00,30,Wunderground v.1.15,2013-08-07 13:42:00,
2013-08-07 07:48:00,51.7,41.5,29.84,ENE,61,4.0,4.0,68,0.00,,,0.00,32,Wunderground v.1.15,2013-08-07 13:48:00,
2013-08-07 07:54:00,52.8,41.7,29.84,ENE,69,4.0,4.0,66,0.00,,,0.00,32,Wunderground v.1.15,2013-08-07 13:54:00,
2013-08-07 14:30:00,85.1,46.4,29.76,WSW,249,7.0,7.0,26,0.00,,,0.00,930,Wunderground v.1.15,2013-08-07 20:30:00,
2013-08-07 14:36:00,85.0,45.2,29.76,WSW,252,6.0,9.0,25,0.00,,,0.00,926,Wunderground v.1.15,2013-08-07 20:36:00,
2013-08-07 14:42:00,84.8,41.7,29.76,West,281,6.0,9.0,22,0.00,,,0.00,916,Wunderground v.1.15,2013-08-07 20:42:00,
2013-08-07 14:48:00,85.0,44.2,29.76,West,273,5.0,9.0,24,0.00,,,0.00,912,Wunderground v.1.15,2013-08-07 20:48:00,
2013-08-07 14:54:00,85.6,45.7,29.76,SW,236,5.0,5.0,25,0.00,,,0.00,904,Wunderground v.1.15,2013-08-07 20:54:00,
2013-08-07 15:00:00,85.9,42.6,29.76,West,279,4.0,5.0,22,0.00,,,0.00,902,Wunderground v.1.15,2013-08-07 21:00:00,
2013-08-07 15:06:00,86.2,44.0,29.75,WSW,238,3.0,5.0,23,0.00,,,0.00,891,Wunderground v.1.15,2013-08-07 21:06:00,
2013-08-07 15:12:00,87.0,42.3,29.75,West,273,4.0,5.0,21,0.00,,,0.00,891,Wunderground v.1.15,2013-08-07 21:12:00,
2013-08-07 15:18:00,87.0,42.3,29.75,West,261,5.0,8.0,21,0.00,,,0.00,877,Wunderground v.1.15,2013-08-07 21:18:00,
2013-08-07 15:24:00,86.8,47.8,29.75,SW,236,4.0,5.0,26,0.00,,,0.00,863,Wunderground v.1.15,2013-08-07 21:24:00,
2013-08-07 15:30:00,86.8,42.2,29.75,WNW,291,4.0,5.0,21,0.00,,,0.00,854,Wunderground v.1.15,2013-08-07 21:30:00,
2013-08-07 15:36:00,86.8,44.6,29.75,SW,234,5.0,6.0,23,0.00,,,0.00,844,Wunderground v.1.15,2013-08-07 21:36:00,
2013-08-07 15:42:00,87.4,47.3,29.75,WSW,255,4.0,7.0,25,0.00,,,0.00,831,Wunderground v.1.15,2013-08-07 21:42:00,
2013-08-07 15:48:00,87.4,42.7,29.74,WNW,283,4.0,8.0,21,0.00,,,0.00,821,Wunderground v.1.15,2013-08-07 21:48:00,
2013-08-07 15:54:00,87.3,45.0,29.74,West,265,4.0,7.0,23,0.00,,,0.00,810,Wunderground v.1.15,2013-08-07 21:54:00,
2013-08-07 16:00:00,87.1,47.0,29.74,SW,231,5.0,6.0,25,0.00,,,0.00,798,Wunderground v.1.15,2013-08-07 22:00:00,
2013-08-07 16:06:00,87.1,43.6,29.74,West,269,5.0,7.0,22,0.00,,,0.00,789,Wunderground v.1.15,2013-08-07 22:06:00,
2013-08-07 16:12:00,87.0,44.7,29.74,WNW,284,4.0,5.0,23,0.00,,,0.00,779,Wunderground v.1.15,2013-08-07 22:12:00,
2013-08-07 16:18:00,87.2,43.7,29.74,West,267,3.0,5.0,22,0.00,,,0.00,765,Wunderground v.1.15,2013-08-07 22:18:00,
2013-08-07 16:24:00,87.1,43.6,29.73,West,275,3.0,4.0,22,0.00,,,0.00,754,Wunderground v.1.15,2013-08-07 22:24:00,
2013-08-07 16:30:00,87.1,44.8,29.73,WSW,253,3.0,3.0,23,0.00,,,0.00,738,Wunderground v.1.15,2013-08-07 22:30:00,
2013-08-07 16:36:00,86.9,43.5,29.73,WNW,284,4.0,4.0,22,0.00,,,0.00,728,Wunderground v.1.15,2013-08-07 22:36:00,
2013-08-07 16:42:00,86.7,44.5,29.73,West,269,3.0,4.0,23,0.00,,,0.00,712,Wunderground v.1.15,2013-08-07 22:42:00,
2013-08-07 16:48:00,86.9,43.5,29.72,WSW,248,3.0,5.0,22,0.00,,,0.00,696,Wunderground v.1.15,2013-08-07 22:48:00,
2013-08-07 16:54:00,87.3,47.2,29.72,WSW,246,4.0,4.0,25,0.00,,,0.00,679,Wunderground v.1.15,2013-08-07 22:54:00,
2013-08-07 17:00:00,87.5,42.8,29.72,WSW,252,5.0,5.0,21,0.00,,,0.00,666,Wunderground v.1.15,2013-08-07 23:00:00,
2013-08-07 17:06:00,87.5,45.1,29.72,WSW,238,5.0,7.0,23,0.00,,,0.00,654,Wunderground v.1.15,2013-08-07 23:06:00,
2013-08-07 17:12:00,87.5,47.3,29.72,WSW,241,4.0,5.0,25,0.00,,,0.00,636,Wunderground v.1.15,2013-08-07 23:12:00,
2013-08-07 17:18:00,87.7,48.6,29.72,WSW,257,4.0,5.0,26,0.00,,,0.00,621,Wunderground v.1.15,2013-08-07 23:18:00,
2013-08-07 17:24:00,87.5,46.3,29.72,WSW,244,6.0,7.0,24,0.00,,,0.00,599,Wunderground v.1.15,2013-08-07 23:24:00,
2013-08-07 17:30:00,87.3,48.2,29.71,SW,229,5.0,6.0,26,0.00,,,0.00,584,Wunderground v.1.15,2013-08-07 23:30:00,
2013-08-07 17:36:00,87.3,47.2,29.71,SW,227,5.0,7.0,25,0.00,,,0.00,566,Wunderground v.1.15,2013-08-07 23:36:00,
2013-08-07 17:42:00,87.2,50.1,29.71,West,263,5.0,9.0,28,0.00,,,0.00,550,Wunderground v.1.15,2013-08-07 23:42:00,
2013-08-07 17:48:00,86.9,47.9,29.71,WSW,242,5.0,9.0,26,0.00,,,0.00,536,Wunderground v.1.15,2013-08-07 23:48:00,
2013-08-07 17:54:00,86.8,47.8,29.71,WSW,255,5.0,6.0,26,0.00,,,0.00,517,Wunderground v.1.15,2013-08-07 23:54:00,
2013-08-07 18:00:00,86.7,47.7,29.71,WSW,252,5.0,5.0,26,0.00,,,0.00,496,Wunderground v.1.15,2013-08-08 00:00:00,
2013-08-07 18:06:00,86.5,47.5,29.71,WSW,237,5.0,10.0,26,0.00,,,0.00,476,Wunderground v.1.15,2013-08-08 00:06:00,
2013-08-07 18:12:00,86.3,46.3,29.70,WSW,257,5.0,5.0,25,0.00,,,0.00,459,Wunderground v.1.15,2013-08-08 00:12:00,
2013-08-07 18:18:00,86.1,46.2,29.70,WSW,242,4.0,9.0,25,0.00,,,0.00,439,Wunderground v.1.15,2013-08-08 00:18:00,
2013-08-07 18:24:00,85.8,48.0,29.70,SW,234,5.0,7.0,27,0.00,,,0.00,424,Wunderground v.1.15,2013-08-08 00:24:00,
2013-08-07 18:30:00,85.6,46.8,29.70,SW,232,5.0,9.0,26,0.00,,,0.00,401,Wunderground v.1.15,2013-08-08 00:30:00,
2013-08-07 18:36:00,85.2,47.4,29.70,WSW,254,6.0,9.0,27,0.00,,,0.00,383,Wunderground v.1.15,2013-08-08 00:36:00,
2013-08-07 18:42:00,84.9,49.1,29.70,WSW,248,4.0,5.0,29,0.00,,,0.00,364,Wunderground v.1.15,2013-08-08 00:42:00,
2013-08-07 18:48:00,84.7,48.0,29.70,WSW,250,3.0,5.0,28,0.00,,,0.00,345,Wunderground v.1.15,2013-08-08 00:48:00,
2013-08-07 18:54:00,84.5,49.7,29.70,SW,231,4.0,4.0,30,0.00,,,0.00,323,Wunderground v.1.15,2013-08-08 00:54:00,
2013-08-07 19:00:00,84.1,49.3,29.70,WSW,243,5.0,5.0,30,0.00,,,0.00,306,Wunderground v.1.15,2013-08-08 01:00:00,
2013-08-07 19:06:00,83.8,49.1,29.70,WSW,251,4.0,5.0,30,0.00,,,0.00,283,Wunderground v.1.15,2013-08-08 01:06:00,
2013-08-07 19:12:00,83.6,49.8,29.70,WSW,250,3.0,3.0,31,0.00,,,0.00,260,Wunderground v.1.15,2013-08-08 01:12:00,
2013-08-07 19:18:00,83.3,47.7,29.70,WSW,248,3.0,4.0,29,0.00,,,0.00,241,Wunderground v.1.15,2013-08-08 01:18:00,
2013-08-07 19:24:00,83.1,50.2,29.70,WSW,247,2.0,3.0,32,0.00,,,0.00,220,Wunderground v.1.15,2013-08-08 01:24:00,
2013-08-07 19:30:00,82.8,49.1,29.70,WSW,240,2.0,3.0,31,0.00,,,0.00,199,Wunderground v.1.15,2013-08-08 01:30:00,
2013-08-07 19:38:00,82.1,47.6,29.71,SW,229,3.0,3.0,30,0.00,,,0.00,167,Wunderground v.1.15,2013-08-08 01:38:00,
2013-08-07 19:54:00,80.4,50.2,29.71,SW,229,2.0,2.0,35,0.00,,,0.00,114,Wunderground v.1.15,2013-08-08 01:54:00,
2013-08-07 20:00:00,79.7,50.4,29.71,SW,229,1.0,1.0,36,0.00,,,0.00,95,Wunderground v.1.15,2013-08-08 02:00:00,
2013-08-07 20:08:00,78.7,49.5,29.71,SW,229,0.0,1.0,36,0.00,,,0.00,69,Wunderground v.1.15,2013-08-08 02:08:00,
2013-08-07 20:18:00,77.8,48.7,29.70,SW,229,0.0,0.0,36,0.00,,,0.00,47,Wunderground v.1.15,2013-08-08 02:18:00,
2013-08-07 20:24:00,77.4,47.6,29.70,SW,229,0.0,0.0,35,0.00,,,0.00,35,Wunderground v.1.15,2013-08-08 02:24:00,
2013-08-07 20:30:00,76.9,47.9,29.70,SW,229,0.0,0.0,36,0.00,,,0.00,25,Wunderground v.1.15,2013-08-08 02:30:00,
2013-08-07 20:36:00,76.1,45.7,29.71,SW,229,0.0,0.0,34,0.00,,,0.00,12,Wunderground v.1.15,2013-08-08 02:36:00,
2013-08-07 20:42:00,75.3,47.9,29.71,SW,229,0.0,0.0,38,0.00,,,0.00,11,Wunderground v.1.15,2013-08-08 02:42:00,
2013-08-07 20:48:00,74.2,47.0,29.71,SW,229,0.0,0.0,38,0.00,,,0.00,7,Wunderground v.1.15,2013-08-08 02:48:00,
2013-08-07 20:54:00,72.9,45.8,29.72,SW,229,0.0,0.0,38,0.00,,,0.00,5,Wunderground v.1.15,2013-08-08 02:54:00,
2013-08-07 21:00:00,71.8,45.5,29.72,SW,229,0.0,0.0,39,0.00,,,0.00,0,Wunderground v.1.15,2013-08-08 03:00:00,
2013-08-07 21:06:00,70.8,45.3,29.72,SW,229,0.0,0.0,40,0.00,,,0.00,0,Wunderground v.1.15,2013-08-08 03:06:00,
2013-08-07 21:12:00,69.5,46.0,29.72,SW,229,0.0,0.0,43,0.00,,,0.00,0,Wunderground v.1.15,2013-08-08 03:12:00,
2013-08-07 21:18:00,68.4,45.6,29.73,SW,229,0.0,0.0,44,0.00,,,0.00,0,Wunderground v.1.15,2013-08-08 03:18:00,
2013-08-07 21:24:00,67.2,45.7,29.73,SW,229,0.0,0.0,46,0.00,,,0.00,0,Wunderground v.1.15,2013-08-08 03:24:00,
2013-08-07 21:30:00,66.2,44.2,29.74,SW,229,0.0,0.0,45,0.00,,,0.00,0,Wunderground v.1.15,2013-08-08 03:30:00,
2013-08-07 21:36:00,65.4,42.9,29.74,SW,229,0.0,0.0,44,0.00,,,0.00,0,Wunderground v.1.15,2013-08-08 03:36:00,
2013-08-07 21:42:00,64.7,43.4,29.74,SW,229,0.0,0.0,46,0.00,,,0.00,0,Wunderground v.1.15,2013-08-08 03:42:00,
2013-08-07 21:48:00,63.9,43.8,29.74,SW,229,0.0,0.0,48,0.00,,,0.00,0,Wunderground v.1.15,2013-08-08 03:48:00,
2013-08-07 21:54:00,63.3,45.4,29.74,SW,229,0.0,0.0,52,0.00,,,0.00,0,Wunderground v.1.15,2013-08-08 03:54:00,
2013-08-07 22:00:00,62.7,43.8,29.74,SW,229,0.0,0.0,50,0.00,,,0.00,0,Wunderground v.1.15,2013-08-08 04:00:00,
2013-08-07 22:02:00,62.4,44.5,29.74,SW,229,0.0,0.0,52,0.00,,,0.00,0,Wunderground v.1.15,2013-08-08 04:02:00,
2013-08-07 22:04:00,62.1,44.3,29.74,SW,229,0.0,0.0,52,0.00,,,0.00,0,Wunderground v.1.15,2013-08-08 04:04:00,
2013-08-07 22:08:00,61.6,44.3,29.74,SW,229,0.0,0.0,53,0.00,,,0.00,0,Wunderground v.1.15,2013-08-08 04:08:00,
2013-08-07 22:12:00,61.1,43.8,29.74,SW,229,0.0,0.0,53,0.00,,,0.00,0,Wunderground v.1.15,2013-08-08 04:12:00,
2013-08-07 22:14:00,60.9,43.1,29.75,SW,229,0.0,0.0,52,0.00,,,0.00,0,Wunderground v.1.15,2013-08-08 04:14:00,
2013-08-07 22:20:00,60.2,44.4,29.75,SW,229,0.0,0.0,56,0.00,,,0.00,0,Wunderground v.1.15,2013-08-08 04:20:00,
2013-08-07 22:26:00,59.5,42.3,29.75,SW,229,0.0,0.0,53,0.00,,,0.00,0,Wunderground v.1.15,2013-08-08 04:26:00,
2013-08-07 22:32:00,58.7,43.0,29.75,SW,229,0.0,0.0,56,0.00,,,0.00,0,Wunderground v.1.15,2013-08-08 04:32:00,
2013-08-07 22:38:00,58.1,41.5,29.75,SW,229,0.0,0.0,54,0.00,,,0.00,0,Wunderground v.1.15,2013-08-08 04:38:00,
2013-08-07 22:50:00,56.9,39.4,29.76,SE,134,1.0,2.0,52,0.00,,,0.00,0,Wunderground v.1.15,2013-08-08 04:50:00,
2013-08-07 22:56:00,56.6,39.2,29.76,SE,128,1.0,2.0,52,0.00,,,0.00,0,Wunderground v.1.15,2013-08-08 04:56:00,
2013-08-07 23:02:00,56.5,39.1,29.76,ESE,122,0.0,1.0,52,0.00,,,0.00,0,Wunderground v.1.15,2013-08-08 05:02:00,
2013-08-07 23:08:00,56.7,38.8,29.76,East,101,1.0,1.0,51,0.00,,,0.00,0,Wunderground v.1.15,2013-08-08 05:08:00,
2013-08-07 23:14:00,57.0,39.0,29.76,East,94,1.0,2.0,51,0.00,,,0.00,0,Wunderground v.1.15,2013-08-08 05:14:00,
2013-08-07 23:20:00,57.3,38.8,29.76,East,90,2.0,3.0,50,0.00,,,0.00,0,Wunderground v.1.15,2013-08-08 05:20:00,
2013-08-07 23:26:00,57.4,39.9,29.76,East,94,2.0,3.0,52,0.00,,,0.00,0,Wunderground v.1.15,2013-08-08 05:26:00,
2013-08-07 23:32:00,57.5,41.4,29.76,East,94,2.0,2.0,55,0.00,,,0.00,0,Wunderground v.1.15,2013-08-08 05:32:00,
2013-08-07 23:38:00,57.3,41.3,29.76,East,92,2.0,3.0,55,0.00,,,0.00,0,Wunderground v.1.15,2013-08-08 05:38:00,
2013-08-07 23:44:00,57.0,41.0,29.77,ENE,69,2.0,4.0,55,0.00,,,0.00,0,Wunderground v.1.15,2013-08-08 05:44:00,
2013-08-07 23:50:00,56.2,40.2,29.77,ENE,71,4.0,4.0,55,0.00,,,0.00,0,Wunderground v.1.15,2013-08-08 05:50:00,
2013-08-07 23:56:00,55.4,40.0,29.77,ENE,75,5.0,5.0,56,0.00,,,0.00,0,Wunderground v.1.15,2013-08-08 05:56:00,